Flag for U.S.A. Weather past 2 weeks in Inglewood, California, U.S.A.

Now
67 °F

Passing clouds.


Feels Like: 67 °F
Forecast: 65 / 78 °F
Wind: No wind

Location: Hawthorne Municipal Airport

Current Time: Sep 22, 2014 at 2:15:14 AM

Latest Report: Sep 22, 2014 at 1:53 AM


Visibility: 10 mi

Pressure: 29.96 "Hg

Humidity: 87%

Dew point: 63 °F

Location of InglewoodLocation

Historic Weather in Inglewood — Graph

°F

Inglewood temperature yesterday

Maximum temperature yesterday: 77 °F (at 12:53 PM)
Minimum temperature yesterday: 67 °F (at 2:53 AM)
Average temperature yesterday: 71 °F

Past Weeks' High & Low Weather Summary

 TemperatureHumidityPressure
High94 °F (Sep 16, 10:53 AM)87% (Sep 10, 12:53 AM)30.01 "Hg (Sep 10, 12:53 AM)
Low67 °F (Sep 10, 3:53 AM)30% (Sep 17, 3:53 PM)29.68 "Hg (Sep 13, 6:53 PM)
Average76 °F66%29.82 "Hg
* Reported Sep 7 12:53 AM — Sep 22 12:53 AM, Inglewood, Weather by CustomWeather, © 2014

Note: Actual official high and low records may vary slightly from our data, if they occured in-between our weather recording intervals... More about our weather records

Advertising

Inglewood weather history for previous 24 hours

 ConditionsComfort  
Time TempWeatherWind HumidityBarometerVisibility
12:53 AM
Sep 22
68 °FClear.No wind84%29.95 "Hg10 mi
11:53 PM
Sep 21
68 °FClear.No wind84%29.95 "Hg10 mi
10:53 PM68 °FClear.5 mph82%29.94 "Hg10 mi
9:53 PM68 °FClear.3 mph84%29.95 "Hg10 mi
8:53 PM69 °FClear.6 mph81%29.95 "Hg10 mi
7:53 PM69 °FClear.8 mph81%29.93 "Hg10 mi
6:53 PM70 °FSunny.7 mph76%29.93 "Hg10 mi
5:53 PM72 °FSunny.10 mph68%29.93 "Hg10 mi
4:53 PM74 °FSunny.13 mph67%29.92 "Hg10 mi
3:53 PM76 °FSunny.14 mph58%29.93 "Hg10 mi
2:53 PM77 °FSunny.13 mph54%29.93 "Hg10 mi
1:53 PM77 °FSunny.10 mph54%29.95 "Hg10 mi
12:53 PM77 °FSunny.8 mph56%29.96 "Hg10 mi
11:53 AM74 °FOvercast.3 mph62%29.98 "Hg10 mi
11:03 AM73 °FOvercast.6 mph64%30.00 "Hg10 mi
10:53 AM72 °FOvercast.No wind66%30.00 "Hg10 mi
10:00 AM72 °FOvercast.3 mph66%30.01 "Hg10 mi
8:53 AM71 °FPartly sunny.No wind76%29.99 "Hg10 mi
8:00 AM70 °FPartly sunny.No wind79%29.99 "Hg10 mi
6:53 AM69 °FMostly cloudy.No wind81%29.96 "Hg10 mi
5:53 AM69 °FOvercast.3 mph81%29.95 "Hg10 mi
4:53 AM68 °FOvercast.No wind84%29.94 "Hg10 mi
3:53 AM67 °FOvercast.No wind87%29.93 "Hg10 mi
2:53 AM67 °FClear.No wind87%29.93 "Hg10 mi
Weather by CustomWeather, © 2014

See weather overviewHow to use our weather pages